Location: Newark
(12.4436°N, 0.6167°W)
Time: 13:52:37
(UTC+00:00)

Transit 2A - Visible Passes

Search period start: 13 December 2019 00:00
Search period end: 23 December 2019 00:00
Orbit: 602 x 957 km, 66.7° (Epoch: 12 December)

Date Brightness Start Highest point End Pass type
(mag) Time Alt. Az. Time Alt. Az. Time Alt. Az.
13 Dec 6.3 04:58:02 10° SSW 05:03:25 66° ESE 05:08:15 10° NNE visible
14 Dec 7.3 04:24:19 10° S 04:29:19 38° ESE 04:33:52 10° NE visible
15 Dec 8.2 03:51:03 10° SSE 03:55:12 23° ESE 03:59:04 10° ENE visible
15 Dec 7.0 05:34:08 10° WSW 05:38:08 22° WNW 05:41:52 10° NNW visible
16 Dec 8.8 03:18:36 10° SE 03:21:06 13° ESE 03:23:29 10° E visible
16 Dec 6.3 04:59:12 10° SW 05:04:03 37° WNW 05:08:30 10° N visible
17 Dec 8.0 04:34:22 12° NNE 04:34:22 12° NNE 04:34:45 10° NNE visible
